• en Suisse
  • Liste des pays
  • À 7 jours
  • Température de l'eau
  • Carte satellitaire
  • Carte météo
  • Widgets météo
  • user-avatar
    Se connecter

    Météo par heure à Irbid

    Ce jour, 19 Octobre, Vendredi

    Heure Température Précipitation Vent Pression Humidité
    00:00 +23°C° 0.2 mm 2 m/s 710 mmHg 69%
    01:00 +23°C° 0.2 mm 2 m/s 710 mmHg 69%
    02:00 +23°C° 0.2 mm 1 m/s 710 mmHg 70%
    03:00 +22°C° 0 mm 1 m/s 710 mmHg 71%
    04:00 +22°C° 0 mm 1 m/s 710 mmHg 72%
    05:00 +22°C° 0 mm 1 m/s 710 mmHg 73%
    06:00 +23°C° 0 mm 1 m/s 710 mmHg 69%
    07:00 +23°C° 0 mm 1 m/s 710 mmHg 66%
    08:00 +24°C° 0 mm 2 m/s 711 mmHg 62%
    09:00 +25°C° 0.1 mm 2 m/s 711 mmHg 57%
    10:00 +26°C° 0.1 mm 2 m/s 711 mmHg 52%
    11:00 +27°C° 0.1 mm 3 m/s 711 mmHg 47%
    12:00 +28°C° 0.1 mm 3 m/s 711 mmHg 46%
    13:00 +28°C° 0.1 mm 3 m/s 711 mmHg 46%
    14:00 +28°C° 0.1 mm 4 m/s 711 mmHg 45%
    15:00 +28°C° 0.4 mm 4 m/s 711 mmHg 50%
    16:00 +27°C° 0.4 mm 4 m/s 711 mmHg 56%
    17:00 +26°C° 0.4 mm 4 m/s 710 mmHg 61%
    18:00 +25°C° 0.8 mm 3 m/s 710 mmHg 64%
    19:00 +25°C° 0.8 mm 3 m/s 711 mmHg 68%
    20:00 +24°C° 0.8 mm 2 m/s 711 mmHg 71%
    21:00 +23°C° 0 mm 2 m/s 711 mmHg 73%
    22:00 +23°C° 0 mm 2 m/s 711 mmHg 76%
    23:00 +23°C° 0 mm 2 m/s 711 mmHg 78%

    Demain, 20 Octobre, Samedi

    Heure Température Précipitation Vent Pression Humidité
    00:00 +21°C° 0 mm 2 m/s 711 mmHg 80%
    01:00 +22°C° 0 mm 1 m/s 710 mmHg 83%
    02:00 +22°C° 0 mm 1 m/s 710 mmHg 85%
    03:00 +21°C° 0 mm 1 m/s 710 mmHg 86%
    04:00 +21°C° 0 mm 1 m/s 710 mmHg 87%
    05:00 +21°C° 0 mm 1 m/s 710 mmHg 88%
    06:00 +21°C° 0 mm 1 m/s 710 mmHg 83%
    07:00 +22°C° 0 mm 1 m/s 711 mmHg 77%
    08:00 +23°C° 0 mm 1 m/s 711 mmHg 72%
    09:00 +24°C° 0 mm 2 m/s 711 mmHg 64%
    10:00 +25°C° 0 mm 2 m/s 711 mmHg 55%
    11:00 +26°C° 0 mm 2 m/s 711 mmHg 47%
    12:00 +27°C° 0 mm 3 m/s 711 mmHg 45%
    13:00 +27°C° 0 mm 3 m/s 711 mmHg 42%
    14:00 +27°C° 0 mm 4 m/s 711 mmHg 40%
    15:00 +27°C° 0 mm 4 m/s 710 mmHg 45%
    16:00 +26°C° 0 mm 4 m/s 710 mmHg 50%
    17:00 +25°C° 0 mm 4 m/s 710 mmHg 56%
    18:00 +23°C° 0 mm 4 m/s 710 mmHg 61%
    19:00 +24°C° 0 mm 3 m/s 710 mmHg 67%
    20:00 +23°C° 0 mm 2 m/s 711 mmHg 72%
    21:00 +21°C° 0 mm 2 m/s 710 mmHg 74%
    22:00 +21°C° 0 mm 2 m/s 710 mmHg 76%
    23:00 +21°C° 0 mm 2 m/s 710 mmHg 79%

    Après-demain, 21 Octobre, Dimanche

    Heure Température Précipitation Vent Pression Humidité
    00:00 +20°C° 0 mm 2 m/s 710 mmHg 80%
    01:00 +20°C° 0 mm 2 m/s 710 mmHg 82%
    02:00 +20°C° 0 mm 2 m/s 710 mmHg 83%
    03:00 +20°C° 0 mm 1 m/s 710 mmHg 84%
    04:00 +20°C° 0 mm 1 m/s 710 mmHg 85%
    05:00 +20°C° 0 mm 1 m/s 710 mmHg 85%
    06:00 +21°C° 0 mm 1 m/s 710 mmHg 80%
    07:00 +21°C° 0 mm 1 m/s 711 mmHg 74%
    08:00 +21°C° 0 mm 2 m/s 711 mmHg 69%
    09:00 +23°C° 0 mm 2 m/s 711 mmHg 61%
    10:00 +24°C° 0 mm 2 m/s 711 mmHg 54%
    11:00 +26°C° 0 mm 3 m/s 711 mmHg 46%
    12:00 +26°C° 0 mm 3 m/s 711 mmHg 43%
    13:00 +27°C° 0 mm 4 m/s 711 mmHg 40%
    14:00 +28°C° 0 mm 4 m/s 711 mmHg 37%
    15:00 +27°C° 0 mm 4 m/s 710 mmHg 39%
    16:00 +26°C° 0 mm 3 m/s 710 mmHg 42%
    17:00 +25°C° 0 mm 3 m/s 710 mmHg 45%
    18:00 +25°C° 0 mm 2 m/s 710 mmHg 49%
    19:00 +24°C° 0 mm 2 m/s 711 mmHg 52%
    20:00 +23°C° 0 mm 1 m/s 711 mmHg 56%
    21:00 +23°C° 0 mm 1 m/s 711 mmHg 58%
    22:00 +22°C° 0 mm 1 m/s 711 mmHg 59%
    23:00 +20°C° 0 mm 0 m/s 711 mmHg 60%

    22 Octobre, Lundi

    Heure Température Précipitation Vent Pression Humidité
    00:00 +20°C° 0 mm 0 m/s 710 mmHg 59%
    01:00 +22°C° 0 mm 1 m/s 710 mmHg 58%
    02:00 +21°C° 0 mm 1 m/s 710 mmHg 56%
    03:00 +21°C° 0 mm 1 m/s 710 mmHg 54%
    04:00 +21°C° 0 mm 1 m/s 710 mmHg 52%
    05:00 +21°C° 0 mm 1 m/s 710 mmHg 49%
    06:00 +22°C° 0 mm 1 m/s 711 mmHg 44%
    07:00 +24°C° 0 mm 2 m/s 711 mmHg 38%
    08:00 +25°C° 0 mm 2 m/s 712 mmHg 33%
    09:00 +27°C° 0 mm 2 m/s 712 mmHg 29%
    10:00 +28°C° 0 mm 3 m/s 712 mmHg 26%
    11:00 +30°C° 0 mm 4 m/s 712 mmHg 22%
    12:00 +32°C° 0 mm 4 m/s 711 mmHg 21%
    13:00 +32°C° 0 mm 4 m/s 711 mmHg 19%
    14:00 +33°C° 0 mm 4 m/s 710 mmHg 18%
    15:00 +31°C° 0 mm 3 m/s 710 mmHg 20%
    16:00 +30°C° 0 mm 2 m/s 710 mmHg 22%
    17:00 +29°C° 0 mm 2 m/s 710 mmHg 24%
    18:00 +28°C° 0 mm 1 m/s 710 mmHg 25%
    19:00 +27°C° 0 mm 1 m/s 710 mmHg 26%
    20:00 +26°C° 0 mm 1 m/s 710 mmHg 27%
    21:00 +26°C° 0 mm 1 m/s 710 mmHg 27%
    22:00 +26°C° 0 mm 1 m/s 710 mmHg 27%
    23:00 +26°C° 0 mm 1 m/s 710 mmHg 27%

    23 Octobre, Mardi

    Heure Température Précipitation Vent Pression Humidité
    00:00 +25°C° 0 mm 1 m/s 710 mmHg 27%
    01:00 +24°C° 0 mm 1 m/s 709 mmHg 28%
    02:00 +24°C° 0 mm 1 m/s 709 mmHg 29%
    03:00 +23°C° 0 mm 1 m/s 709 mmHg 30%
    04:00 +23°C° 0 mm 1 m/s 710 mmHg 32%
    05:00 +22°C° 0 mm 1 m/s 710 mmHg 33%
    06:00 +23°C° 0 mm 1 m/s 710 mmHg 31%
    07:00 +24°C° 0 mm 1 m/s 711 mmHg 30%
    08:00 +26°C° 0 mm 1 m/s 711 mmHg 28%
    09:00 +27°C° 0 mm 2 m/s 711 mmHg 28%
    10:00 +28°C° 0 mm 2 m/s 711 mmHg 27%
    11:00 +29°C° 0 mm 2 m/s 711 mmHg 27%
    12:00 +29°C° 0 mm 2 m/s 711 mmHg 26%
    13:00 +30°C° 0 mm 3 m/s 711 mmHg 26%
    14:00 +30°C° 0 mm 3 m/s 710 mmHg 26%
    15:00 +29°C° 0 mm 3 m/s 710 mmHg 29%
    16:00 +28°C° 0 mm 3 m/s 710 mmHg 32%
    17:00 +28°C° 0 mm 2 m/s 710 mmHg 35%
    18:00 +27°C° 0 mm 2 m/s 710 mmHg 40%
    19:00 +26°C° 0 mm 2 m/s 710 mmHg 46%
    20:00 +25°C° 0 mm 2 m/s 710 mmHg 51%
    21:00 +25°C° 0 mm 1 m/s 710 mmHg 54%
    22:00 +24°C° 0 mm 1 m/s 710 mmHg 57%
    23:00 +24°C° 0 mm 1 m/s 710 mmHg 60%

    24 Octobre, Mercredi

    Heure Température Précipitation Vent Pression Humidité
    00:00 +24°C° 0 mm 1 m/s 710 mmHg 61%
    01:00 +23°C° 0 mm 1 m/s 710 mmHg 63%
    02:00 +23°C° 0 mm 1 m/s 709 mmHg 64%
    03:00 +23°C° 0 mm 1 m/s 709 mmHg 65%
    04:00 +22°C° 0 mm 1 m/s 709 mmHg 65%
    05:00 +22°C° 0 mm 1 m/s 709 mmHg 66%
    06:00 +23°C° 0 mm 1 m/s 710 mmHg 62%
    07:00 +24°C° 0 mm 1 m/s 710 mmHg 58%
    08:00 +24°C° 0 mm 1 m/s 710 mmHg 54%
    09:00 +25°C° 0 mm 2 m/s 710 mmHg 50%
    10:00 +26°C° 0 mm 3 m/s 710 mmHg 45%
    11:00 +27°C° 0 mm 3 m/s 710 mmHg 41%
    12:00 +27°C° 0 mm 4 m/s 710 mmHg 40%
    13:00 +27°C° 0 mm 4 m/s 710 mmHg 39%
    14:00 +28°C° 0 mm 5 m/s 710 mmHg 37%
    15:00 +27°C° 0 mm 5 m/s 710 mmHg 40%
    16:00 +26°C° 0 mm 4 m/s 710 mmHg 44%
    17:00 +25°C° 0 mm 4 m/s 710 mmHg 47%
    18:00 +24°C° 0 mm 3 m/s 710 mmHg 50%
    19:00 +24°C° 0 mm 3 m/s 710 mmHg 53%
    20:00 +23°C° 0 mm 2 m/s 710 mmHg 56%
    21:00 +21°C° 0 mm 2 m/s 710 mmHg 58%
    22:00 +22°C° 0 mm 1 m/s 710 mmHg 59%
    23:00 +22°C° 0 mm 1 m/s 710 mmHg 61%
    Voir plus